Regional Weather Roundup
Issued by NWS

Home | Current Version | Previous Version | Graphics & Text | Print | Product List | Glossary On
Versions: 1 2 3 4 5 6 7 8 9 10 11 12 13 14 15 16 17 18 19 20 21 22 23 24 25 26 27 28 29 30 31 32 33 34 35 36 37 38 39 40 41 42 43 44 45 46 47 48 49 50
077
ASUS43 KIND 242159
RWRIN

WEATHER ROUNDUP FOR INDIANA
NATIONAL WEATHER SERVICE INDIANAPOLIS IN
600 PM EDT TUE MAY 24 2016

NOTE: "FAIR" INDICATES FEW OR NO CLOUDS BELOW 12,000 FEET WITH NO
SIGNIFICANT WEATHER AND/OR OBSTRUCTIONS TO VISIBILITY.

* - STATION DOES NOT REPORT WEATHER SUCH AS PRECIPITATION OR FOG.

+ - STATION NOT QUALITY CONTROLLED BY THE NATIONAL WEATHER SERVICE.
    USE DATA WITH CAUTION...ESPECIALLY DEWPOINT AND RELATIVE
    HUMIDITY OBSERVATIONS.

INZ001>003-010>013-019-020-242300-
NORTHWEST INDIANA

CITY           SKY/WX    TMP DP  RH WIND       PRES   REMARKS
GARY /AIRPORT/ PTSUNNY   88  59  37 SW14      29.95S
RENSSELAER +   MOSUNNY   86  41  20 S18       29.98S

$$

LMZ046-743>745-242300-
SOUTHERN LAKE MICHIGAN

STATION/POSITION TIME  TEMP    WIND        PRES    WAVE
                       AIR SEA DIR/SP/G            HT
                 (UTC) (F)     (DEG/KT/KT) (MB)    (FT)
BURNS HARBOR     2100   83     210/ 12/ 20 1014.6S
MICHIGAN CITY    2100   81     210/ 14/ 16   N/A
5NW MICH CITY    2100   71 60  230/  4/  6   N/A     1

$$

INZ004-005-014>016-021>024-242300-
NORTH CENTRAL INDIANA

CITY           SKY/WX    TMP DP  RH WIND       PRES   REMARKS
ELKHART        SUNNY     84  55  37 S7        29.99R
GOSHEN         SUNNY     83  47  28 SW14      29.99R
SOUTH BEND     SUNNY     84  46  26 SW13      29.98R

$$

INZ006>009-017-018-025>027-242300-
NORTHEAST INDIANA

CITY           SKY/WX    TMP DP  RH WIND       PRES   REMARKS
ANGOLA *+      SUNNY     82  52  34 SW7       30.00S
FORT WAYNE     MOSUNNY   83  46  27 S9        30.02R

$$

INZ028-029-035-036-043>045-051>053-242300-
WEST CENTRAL INDIANA

CITY           SKY/WX    TMP DP  RH WIND       PRES   REMARKS
CRAWFORDSVL +  MOSUNNY   82  53  36 SW16G23   30.03S
GREENCASTLE +  MOSUNNY   81  59  47 S9        30.04S
LAFAYETTE      SUNNY     83  49  30 S10G20    29.99S
TERRE HAUTE    MOSUNNY   82  55  39 S15       30.03S

$$

INZ030>032-037>040-046>048-054>057-064-065-242300-
CENTRAL INDIANA

CITY           SKY/WX    TMP DP  RH WIND       PRES   REMARKS
COLUMBUS       MOSUNNY   82  50  32 S12       30.05R
INDIANAPOLIS   MOSUNNY   81  54  39 SW14      30.02S
-EAGLE CREEK   MOSUNNY   82  50  32 SW10G17   30.02S
KOKOMO *+      SUNNY     82  52  34 SW10G17   30.01S
SHELBYVILLE    MOSUNNY   84  51  31 S9        30.03R

$$

INZ033-034-041-042-049-050-058-059-242300-
EAST CENTRAL INDIANA

CITY           SKY/WX    TMP DP  RH WIND       PRES   REMARKS
MUNCIE         SUNNY     83  42  23 S9        30.04R

$$

INZ060-061-067>069-081>083-085>088-242300-
SOUTHWEST INDIANA

CITY           SKY/WX    TMP DP  RH WIND       PRES   REMARKS
EVANSVILLE     CLOUDY    77  57  50 SW10      30.06S
HUNTINGBURG *+ PTSUNNY   81  57  44 S13G20    30.05F

$$

INZ062-063-066-070>080-084-089>092-242300-
SOUTH CENTRAL AND SOUTHEAST INDIANA

CITY           SKY/WX    TMP DP  RH WIND       PRES   REMARKS
BLOOMINGTON    PTSUNNY   80  53  39 SW10      30.05R
MADISON *+     SUNNY     82  43  24 S6        30.08S
SEYMOUR +      MOSUNNY   82  54  36 S7        30.04R

$$





USA.gov is the U.S. government's official web portal to all federal, state and local government web resources and services.